Weather History for Omaha, NE

Change the Weather History Date:

Wednesday, February 26, 2014

  Actual Average Record
Temperature  
Mean Temperature 18 °F 32 °F  
Max Temperature 36 °F 42 °F 78 °F (1896)
Min Temperature 0 °F 22 °F -11 °F (1897)
Degree Days  
Heating Degree Days 47 33  
Month to date heating degree days 1113 967  
Since 1 July heating degree days 5015 4732  
Cooling Degree Days 0 0  
Month to date cooling degree days 0 0  
Year to date cooling degree days 0 0  
Moisture  
Dew Point 5 °F    
Average Humidity 59    
Maximum Humidity 79    
Minimum Humidity 38    
Precipitation  
Precipitation 0.00 in 0.04 in 0.58 in (1915)
Month to date precipitation 0.71 0.77  
Year to date precipitation 0.85 1.49  
Snow  
Snow 0.00 in 0.10 in - ()
Month to date snowfall 9.3 5.7  
Since 1 July snowfall 14.7 20.8  
Snow Depth T in    
Sea Level Pressure  
Sea Level Pressure 30.20 in    
Wind  
Wind Speed 12 mph (West)    
Max Wind Speed 25 mph    
Max Gust Speed 32 mph    
Visibility 10 miles    
Events      
T = Trace of Precipitation, MM = Missing Value Source: NWS Daily Summary

Daily Weather History Graph

Daily Weather History Graph

Search for Another Location

Airport:

Trip Planner

Search our weather history database for the weather conditions in past years. The results will help you decide how hot, cold, wet, or windy it might be!

Date:

Astronomy

Feb. 26, 2014 Rise Set
Actual Time 7:02 AM CST 6:10 PM CST
Civil Twilight 6:34 AM CST 6:38 PM CST
Nautical Twilight 6:02 AM CST 7:10 PM CST
Astronomical Twilight 5:30 AM CST 7:42 PM CST
Moon 4:51 AM CST (2/26) 3:25 PM CST (2/26)
Length of Visible Light 12h 03m
Length of Day
11h 08m
Waning Crescent, 10% of the Moon is Illuminated
Feb 26
Waning Crescent
Mar 1
New
Mar 8
First Quarter
Mar 16
Full
Mar 23
Last Quarter

Hourly Weather History & Observations

Time (CST) Temp. Windchill Dew Point Humidity Pressure Visibility Wind Dir Wind Speed Gust Speed Precip Events Conditions
12:52 AM 5.0 °F -6.9 °F -2.9 °F 70% 30.56 in 10.0 mi NW 6.9 mph - N/A   Clear
1:52 AM 3.9 °F -10.4 °F -4.0 °F 70% 30.54 in 10.0 mi NW 9.2 mph - N/A   Clear
2:52 AM 3.0 °F -10.5 °F -4.0 °F 73% 30.51 in 10.0 mi NW 8.1 mph - N/A   Clear
3:52 AM 3.0 °F -9.3 °F -5.1 °F 69% 30.47 in 10.0 mi WNW 6.9 mph - N/A   Clear
4:52 AM -0.0 °F -11.6 °F -5.1 °F 79% 30.45 in 10.0 mi NW 5.8 mph - N/A   Clear
5:52 AM 1.9 °F -5.6 °F -4.0 °F 76% 30.43 in 10.0 mi WNW 3.5 mph - N/A   Clear
6:52 AM 1.9 °F -7.6 °F -5.1 °F 72% 30.40 in 10.0 mi West 4.6 mph - N/A   Clear
7:52 AM 5.0 °F -2.1 °F -2.9 °F 70% 30.38 in 10.0 mi SW 3.5 mph - N/A   Clear
8:52 AM 8.1 °F -4.3 °F -0.9 °F 67% 30.36 in 10.0 mi SW 8.1 mph - N/A   Clear
9:52 AM 12.9 °F -0.9 °F 1.0 °F 59% 30.31 in 10.0 mi SSW 11.5 mph - N/A   Clear
10:52 AM 18.0 °F 4.2 °F 3.9 °F 54% 30.26 in 10.0 mi SW 13.8 mph 20.7 mph N/A   Clear
11:52 AM 21.0 °F 7.6 °F 5.0 °F 50% 30.21 in 10.0 mi SW 15.0 mph - N/A   Clear
12:52 PM 25.0 °F 12.2 °F 7.0 °F 46% 30.15 in 10.0 mi SW 16.1 mph 29.9 mph N/A   Partly Cloudy
1:52 PM 30.0 °F 19.5 °F 9.0 °F 41% 30.07 in 10.0 mi SW 13.8 mph 21.9 mph N/A   Clear
2:52 PM 33.1 °F 20.6 °F 10.9 °F 40% 30.02 in 10.0 mi WSW 23.0 mph 31.1 mph N/A   Clear
3:52 PM 35.1 °F 25.2 °F 12.9 °F 40% 29.99 in 10.0 mi West 16.1 mph 26.5 mph N/A   Clear
4:52 PM 35.1 °F 25.2 °F 14.0 °F 42% 29.96 in 10.0 mi West 16.1 mph 24.2 mph N/A   Clear
5:52 PM 34.0 °F 24.2 °F 12.9 °F 42% 29.96 in 10.0 mi West 15.0 mph - N/A   Clear
6:52 PM 33.1 °F 23.4 °F 12.9 °F 43% 29.95 in 10.0 mi West 13.8 mph - N/A   Clear
7:52 PM 30.9 °F 22.2 °F 12.9 °F 47% 29.96 in 10.0 mi WNW 10.4 mph - N/A   Clear
8:52 PM 28.0 °F 19.3 °F 12.0 °F 51% 29.99 in 10.0 mi NW 9.2 mph - N/A   Clear
9:52 PM 28.9 °F 18.2 °F 10.9 °F 47% 30.00 in 10.0 mi NW 13.8 mph - N/A   Clear
10:52 PM 28.0 °F 15.3 °F 12.0 °F 51% 30.01 in 10.0 mi NNW 18.4 mph 28.8 mph N/A   Clear
11:52 PM 21.9 °F 8.2 °F 9.0 °F 58% 30.05 in 10.0 mi North 16.1 mph - N/A   Clear